Powrót do katalogu

BREEZE-M DEB

LostHEO
NORAD 38617·DEBRIS·🇷🇺 Russia

Wystrzelony Mar 14, 2008 z Baikonur Cosmodrome

Loading…

Następne Przeloty (najbliższe 24 godziny)

TLE

NieaktualneSource: Space-Track

Epoka: Feb 15, 2022, 06:03 UTC

1 38617U 08011BQ  22046.25276585 -.00000267  00000-0 -17263-2 0  9997
2 38617  49.3879  20.4031 6389908 240.4559  42.0886  3.23969413123755

Śledź BREEZE-M DEB w czasie rzeczywistym z AllMySat

Download on the App Store